TimeMDT,TemperatureF,Dew PointF,Humidity,Sea Level PressureIn,VisibilityMPH,Wind Direction,Wind SpeedMPH,Gust SpeedMPH,PrecipitationIn,Events,Conditions,WindDirDegrees,DateUTC
12:53 AM,46.9,39.9,77,29.77,10.0,Variable,3.5,-,N/A,,Overcast,0,2012-10-21 06:53:00
1:53 AM,45.0,42.1,90,29.79,8.0,North,12.7,-,0.01,,Overcast,350,2012-10-21 07:53:00
2:23 AM,42.8,42.8,100,29.85,5.0,NW,10.4,-,0.01,Rain,Light Rain,320,2012-10-21 08:23:00
2:32 AM,42.8,41.0,93,29.86,10.0,NW,9.2,-,0.01,,Overcast,320,2012-10-21 08:32:00
2:53 AM,43.0,41.0,93,29.82,10.0,NW,6.9,-,0.01,,Overcast,310,2012-10-21 08:53:00
3:35 AM,42.8,41.0,93,29.87,10.0,WNW,6.9,-,N/A,,Overcast,290,2012-10-21 09:35:00
3:53 AM,43.0,41.0,93,29.85,8.0,NW,9.2,-,N/A,,Overcast,310,2012-10-21 09:53:00
4:01 AM,39.2,37.4,93,29.88,6.0,North,12.7,23.0,0.00,Rain,Light Rain,350,2012-10-21 10:01:00
4:08 AM,39.2,37.4,93,29.89,8.0,North,15.0,-,0.01,Rain,Light Rain,360,2012-10-21 10:08:00
4:43 AM,39.2,37.4,93,29.89,7.0,NW,8.1,-,0.04,Rain,Light Rain,310,2012-10-21 10:43:00
4:53 AM,39.0,37.9,96,29.87,8.0,NW,9.2,-,0.04,Rain,Light Rain,310,2012-10-21 10:53:00
5:53 AM,39.0,37.0,93,29.88,10.0,Calm,Calm,-,0.00,,Overcast,0,2012-10-21 11:53:00
6:53 AM,39.0,37.9,96,29.87,10.0,Calm,Calm,-,N/A,,Overcast,0,2012-10-21 12:53:00
7:53 AM,39.0,37.9,96,29.90,5.0,Calm,Calm,-,N/A,,Overcast,0,2012-10-21 13:53:00
8:28 AM,39.2,37.4,93,29.89,2.0,Calm,Calm,-,0.01,,Overcast,0,2012-10-21 14:28:00
8:39 AM,39.2,37.4,93,29.90,5.0,Calm,Calm,-,0.01,,Overcast,0,2012-10-21 14:39:00
8:53 AM,39.0,39.0,100,29.91,2.5,Calm,Calm,-,0.01,,Overcast,0,2012-10-21 14:53:00
9:03 AM,39.2,39.2,100,29.90,1.5,Calm,Calm,-,0.01,,Overcast,0,2012-10-21 15:03:00
9:32 AM,39.2,39.2,100,29.91,2.5,WNW,4.6,-,0.02,,Overcast,300,2012-10-21 15:32:00
9:53 AM,39.9,39.0,97,29.93,2.5,WNW,3.5,-,0.03,,Overcast,300,2012-10-21 15:53:00
10:25 AM,41.0,39.2,93,29.91,1.5,NE,3.5,-,0.01,Rain,Light Rain,50,2012-10-21 16:25:00
10:53 AM,41.0,39.9,96,29.93,1.5,East,5.8,-,0.03,,Overcast,80,2012-10-21 16:53:00
11:14 AM,41.0,41.0,100,29.91,2.5,East,4.6,-,0.00,,Overcast,100,2012-10-21 17:14:00
11:35 AM,42.8,39.2,87,29.91,3.0,ESE,8.1,-,0.01,,Overcast,110,2012-10-21 17:35:00
11:51 AM,42.8,41.0,93,29.91,5.0,East,6.9,-,0.01,,Overcast,100,2012-10-21 17:51:00
11:53 AM,42.1,41.0,96,29.93,5.0,ESE,8.1,-,0.01,,Overcast,110,2012-10-21 17:53:00
12:17 PM,42.8,39.2,87,29.91,5.0,ESE,8.1,-,N/A,,Overcast,120,2012-10-21 18:17:00
12:30 PM,42.8,41.0,93,29.90,10.0,SE,6.9,-,N/A,,Overcast,130,2012-10-21 18:30:00
12:37 PM,42.8,41.0,93,29.88,10.0,SE,11.5,-,N/A,,Overcast,130,2012-10-21 18:37:00
12:53 PM,43.0,41.0,93,29.91,10.0,ESE,9.2,-,N/A,,Overcast,120,2012-10-21 18:53:00
1:14 PM,44.6,41.0,87,29.89,10.0,ESE,9.2,-,N/A,,Overcast,120,2012-10-21 19:14:00
1:53 PM,45.0,39.9,82,29.88,10.0,ESE,10.4,-,N/A,,Overcast,120,2012-10-21 19:53:00
2:53 PM,46.0,39.9,79,29.88,10.0,East,11.5,-,N/A,,Overcast,100,2012-10-21 20:53:00
3:53 PM,46.0,39.0,76,29.88,10.0,East,11.5,17.3,N/A,,Overcast,100,2012-10-21 21:53:00
4:53 PM,46.0,37.0,71,29.90,10.0,ESE,8.1,-,N/A,,Overcast,110,2012-10-21 22:53:00
5:53 PM,45.0,35.1,68,29.91,10.0,ESE,8.1,-,N/A,,Overcast,120,2012-10-21 23:53:00
6:53 PM,45.0,36.0,71,29.92,10.0,ESE,5.8,-,N/A,,Overcast,120,2012-10-22 00:53:00
7:53 PM,44.1,36.0,73,29.92,10.0,SE,4.6,-,N/A,,Overcast,130,2012-10-22 01:53:00
8:53 PM,44.1,35.1,71,29.92,10.0,SSE,3.5,-,N/A,,Overcast,150,2012-10-22 02:53:00
9:53 PM,43.0,35.1,74,29.92,10.0,Calm,Calm,-,N/A,,Overcast,0,2012-10-22 03:53:00
10:53 PM,42.1,34.0,73,29.91,10.0,Calm,Calm,-,N/A,,Mostly Cloudy,0,2012-10-22 04:53:00
11:10 PM,39.2,35.6,87,29.88,10.0,Calm,Calm,-,N/A,,Mostly Cloudy,0,2012-10-22 05:10:00
11:53 PM,41.0,36.0,82,29.90,10.0,Calm,Calm,-,N/A,,Overcast,0,2012-10-22 05:53:00